Meath Environmental Platform

Observations for Trim Market St

Time AQI Temp °C Hum % Pres Pa CO μg/m³ H₂S μg/m³ NO μg/m³ NO₂ μg/m³ O₃ μg/m³ SO₂ μg/m³ PM1 μg/m³ PM2.5 μg/m³ PM10 μg/m³
Friday 10 July 2026
14:52 1 41.4 26 67,210 0 1.38 0 0.77 37.21 8.03 2.14 5.68 6.25
14:49 1 41.9 25 67,257 0 0 0 0 18.88 8.21 2.14 5.16 5.68
14:47 1 42.2 26 67,284 0 0 0 0 31.25 8.26 2.85 5.7 6.27
14:42 1 42.5 25 67,300 0 0 0 0 29.46 8.15 2.14 4.62 5.09
14:37 1 42.4 25 67,260 0 0 0 0 20.74 6.93 2.85 5.72 6.3
14:36 1 42.4 25 67,262 0 0 0 0 28.35 7.62 0.71 4.62 5.08
14:35 1 42.3 25 67,266 0 0 0 8.29 7.47 5.16 2.14 5.16 5.68
14:33 1 42.3 26 67,266 0 0 0 4.16 23.61 6.13 2.14 6.24 6.87
14:31 1 42.3 25 67,272 0 0 0 4.78 40.5 6.68 2.14 5.16 5.67
14:30 1 42.3 25 67,251 0 0 0 0 21.88 7.63 1.43 5.16 5.68
14:29 1 42.3 25 67,251 0 0 0 1.98 21 6.63 2.14 5.16 5.67
14:28 1 42.3 26 67,249 0 0 0 3.67 31.89 6.32 2.14 5.7 6.27
14:27 1 42.3 25 67,241 0 0 0 3.39 26.96 6.59 1.43 4.61 5.07
14:26 1 42.3 25 67,234 0 0 0 2.99 26.96 6.29 0.71 4.61 5.07
14:21 1 42.2 26 67,247 0 0 0 18.4 21.58 3.93 1.43 4.6 5.06
14:18 1 42.1 26 67,196 0 0 0 9.01 28.18 4.81 2.14 5.15 5.66
14:17 1 42.1 26 67,208 0 0 0 25.81 0 1.58 2.85 6.24 6.87
14:16 1 42 26 67,195 0 0 0 1.5 27.71 5.78 2.85 6.22 6.85
14:07 1 41.7 26 67,196 0 0 0 1.38 19.86 6.11 4.28 6.77 7.45
14:06 1 41.7 26 67,220 0 0 0 0 32.12 6.8 2.85 5.67 6.24